Regional Weather Roundup
Issued by NWS

Home | Current Version | Previous Version | Text Only | Print | Product List | Glossary On
Versions: 1 2 3 4 5 6 7 8 9 10 11 12 13 14 15 16 17 18 19 20 21 22 23 24 25 26 27 28 29 30 31 32 33 34 35 36 37 38 39 40 41 42 43 44 45 46 47 48 49 50
000
ASUS43 KLSX 020910
RWRMO

WEATHER SUMMARY FOR MISSOURI
NATIONAL WEATHER SERVICE SPRINGFIELD MO
400 AM CDT WED SEP 02 2015

NOTE: "FAIR" INDICATES FEW OR NO CLOUDS BELOW 12,000 FEET WITH NO
       SIGNIFICANT WEATHER AND/OR OBSTRUCTIONS TO VISIBILITY.
       CURRENT SKY AND/OR WEATHER CONDITIONS ARE NOT AVAILABLE FOR
       CHILLICOTHE AND FARMINGTON.

MOZ001>031-035>038-043-044-053-054-021000-
...NORTHERN AND WESTERN MISSOURI...

CITY           SKY/WX    TMP DP  RH WIND       PRES   REMARKS
KANSAS CTY INT PTCLDY    72  65  78 S8        29.99R
KANSAS C DTWN  CLEAR     76  65  68 SW8       29.98R
LEE`S SUMMIT   CLEAR     72  64  76 S8        30.01R
ST JOSEPH      LGT RAIN  72  69  90 N6        29.98R
CHILLICOTHE      N/A     68  66  93 CALM      30.02R
KIRKSVILLE     PTCLDY    71  67  87 S6        30.03R

$$
MOZ066>068-077>081-088>096-101>105-021000-
...SOUTHWEST MISSOURI...

CITY           SKY/WX    TMP DP  RH WIND       PRES   REMARKS
SPRINGFIELD    CLEAR     71  65  81 S10       30.07S
JOPLIN         CLEAR     72  66  81 S10       30.04S

$$
MOZ032>034-039>042-045>050-055>058-069>072-021000-
...CENTRAL MISSOURI...

CITY           SKY/WX    TMP DP  RH WIND       PRES   REMARKS
COLUMBIA       CLEAR     71  69  93 S7        30.05R
JEFFERSON CITY CLEAR     73  69  87 E3        30.05R
ROLLA          CLEAR     72  68  87 S8        30.07S
SEDALIA        CLEAR     71  67  87 S8        30.04R
WHITEMAN AFB   CLEAR     70  68  92 S7        30.01R
OSAGE BEACH    CLEAR     72  66  83 S5        30.06S

$$
MOZ051-052-059>065-021000-
...EAST CENTRAL MISSOURI...

CITY           SKY/WX    TMP DP  RH WIND       PRES   REMARKS
ST LOUIS INTL  CLEAR     76  68  76 S3        30.07R
SPIRIT OF STL  CLEAR     73  70  90 CALM      30.05S
ST CHARLES     CLEAR     70  69  97 E5        30.05S

$$
MOZ072>076-082>087-097>100-106>115-021000-
...SOUTH CENTRAL AND SOUTHEAST MISSOURI...

CITY           SKY/WX    TMP DP  RH WIND       PRES   REMARKS
CAPE GIRARDEAU PTCLDY    68  67  96 CALM      30.08R
FARMINGTON     CLEAR     68  68 100 CALM      30.11F
POPLAR BLUFF   CLEAR     67  66  97 N5        30.07R
WEST PLAINS    CLEAR     70  66  87 CALM      30.11S

$$



USA.gov is the U.S. government's official web portal to all federal, state and local government web resources and services.